Tracking 25995 objects as of 20-Aug-2022
HD Live streaming from Space Station
objects crossing your sky now

THOR ABLESTAR DEB

Track THOR ABLESTAR DEB now!
10-day predictions


NORAD ID: 643
Int'l Code: 1961-015GU
Perigee: 900.6 km
Apogee: 1,398.1 km
Inclination: 66.4 °
Period: 108.2 minutes
Semi major axis: 7520 km
RCS: 0.0691 m2 (small)
Launch date: June 29, 1961
Source: United States (US)
Launch site: AIR FORCE EASTERN TEST RANGE (AFETR)

Note: This is SATELLITE DEBRIS
aabbcc
Your satellite tracking list
Your tracking list is empty




NASA's NSSDC Master Catalog

Two Line Element Set (TLE):
1 00643U 61015GU  22231.40897044 -.00000219  00000-0 -23479-3 0  9994
2 00643  66.3728 334.6653 0330779  98.6121 265.2543 13.31213613923558
Source of the keplerian elements: AFSPC